This is the latest recevied weather packets stored in our database for station/object KD4EG. If no packets are shown the sender has not sent any weather packets the latest 10 day(s).
| Time | Temp. | Humidity | Pressure | Rain* | Wind** | Luminosity | Snow |
|---|---|---|---|---|---|---|---|
| 1788354770 | 26.11° C | 80% | 1022.6 hPa | 0 mm | - | 269 W/m² | - |
| 1788354469 | 26.11° C | 80% | 1022.5 hPa | 0 mm | - | 259 W/m² | - |
| 1788354165 | 25.56° C | 80% | 1022.5 hPa | 0 mm | - | 233 W/m² | - |
| 1788353860 | 25.56° C | 81% | 1022.7 hPa | 0 mm | - | 218 W/m² | - |
| 1788353556 | 25.56° C | 81% | 1022.7 hPa | 0 mm | - | 207 W/m² | - |
| 1788353252 | 25° C | 82% | 1022.7 hPa | 0 mm | - | 197 W/m² | - |
| 1788352948 | 25° C | 83% | 1022.6 hPa | 0 mm | - | 182 W/m² | - |
| 1788352643 | 25° C | 83% | 1022.4 hPa | 0 mm | - | 163 W/m² | - |
| 1788352339 | 24.44° C | 84% | 1022.6 hPa | 0 mm | - | 156 W/m² | - |
| 1788352037 | 24.44° C | 85% | 1022.6 hPa | 0 mm | - | 137 W/m² | - |
| 1788351733 | 24.44° C | 85% | 1022.7 hPa | 0 mm | - | 128 W/m² | - |
| 1788351428 | 23.89° C | 86% | 1022.6 hPa | 0 mm | - | 104 W/m² | - |
| 1788351122 | 23.89° C | 87% | 1022.6 hPa | 0 mm | - | 58 W/m² | - |
| 1788350818 | 23.89° C | 87% | 1022.6 hPa | 0 mm | - | 50 W/m² | - |
| 1788350515 | 23.89° C | 87% | 1022.7 hPa | 0 mm | - | 46 W/m² | - |
| 1788350214 | 23.89° C | 87% | 1022.6 hPa | 0 mm | - | 42 W/m² | - |
| 1788349910 | 23.33° C | 87% | 1022.7 hPa | 0 mm | - | 40 W/m² | - |
| 1788349606 | 23.33° C | 88% | 1022.5 hPa | 0 mm | - | 38 W/m² | - |
| 1788349302 | 23.33° C | 88% | 1022.7 hPa | 0 mm | - | 34 W/m² | - |
| 1788348997 | 23.33° C | 88% | 1022.5 hPa | 0 mm | - | 31 W/m² | - |
| 1788348692 | 23.33° C | 88% | 1022.9 hPa | 0 mm | - | 28 W/m² | - |
| 1788348386 | 23.33° C | 88% | 1022.5 hPa | 0 mm | - | 25 W/m² | - |
| 1788348084 | 23.33° C | 88% | 1022.4 hPa | 0 mm | - | 19 W/m² | - |
| 1788347779 | 23.33° C | 87% | 1022.5 hPa | 0 mm | - | 16 W/m² | - |
| 1788347475 | 23.33° C | 88% | 1022.4 hPa | 0 mm | - | 12 W/m² | - |
* Rain latest hour (hover to see other rain measurements)
** Current wind speed in m/s (hover to see current wind gust speed)